Location: Unspecified
(51.0950°N, 12.9690°E)
Time: 15:25:51
(UTC+00:00)

USA 238 - Pass Details

Date: 28 October 2021
Orbit: 977 x 1235 km, 63.4° (Epoch: 25 November)

Event Time Altitude Azimuth Distance (km) Brightness Sun altitude
Rises 18:57:43 0° 314° (NW) 3,907 7.6 -29.9°
Reaches altitude 10° 19:00:20 10° 316° (NW) 2,984 6.7 -30.3°
Enters shadow 19:07:21 71° 33° (NNE) 1,227 3.8 -31.4°
